Regional Weather Roundup
Issued by NWS

Home | Current Version | Previous Version | Text Only | Print | Product List | Glossary On
Versions: 1 2 3 4 5 6 7 8 9 10 11 12 13 14 15 16 17 18 19 20 21 22 23 24 25 26 27
000
ASUS46 KSEW 301410
RWRWA

WASHINGTON REGIONAL WEATHER ROUNDUP
NATIONAL WEATHER SERVICE SEATTLE WA
700 AM PDT MON MAY 30 2016

NOTE:"FAIR" INDICATES FEW OR NO CLOUDS BELOW 12,000 FEET WITH NO
SIGNIFICANT WEATHER AND/OR OBSTRUCTIONS TO VISIBILITY.

WAZ505-507>509-301500-
SEATTLE, TACOMA, EVERETT, AND VICINITY

CITY           SKY/WX    TMP DP  RH WIND       PRES   REMARKS
EVERETT        SUNNY     50  42  74 N6        30.31R
BOEING FIELD   SUNNY     52  47  83 CALM      30.31R
RENTON         SUNNY     48  44  86 CALM      30.30S
SEATAC AIRPORT MOSUNNY   52  44  74 NE7       30.31R
JBLM-MCCHORD   MOSUNNY   46  46 100 CALM      30.30R
PUYALLUP       FAIR      45  45 100 CALM      30.30S
BREMERTON      MOSUNNY   48  46  93 NE5       30.33R
JBLM-FT LEWIS  MOSUNNY   46  46  99 CALM      30.29S
TACOMA NARROWS MOSUNNY   51  43  74 NE3       30.30S
$$

WAZ001-503-506-510-514-515-301500-
NORTH INTERIOR

CITY           SKY/WX    TMP DP  RH WIND       PRES   REMARKS
BELLINGHAM     SUNNY     49  46  90 CALM      30.30R
FRIDAY HARBOR  SUNNY     50  47  89 NE3       30.31R
EASTSOUND      SUNNY     52  48  87 CALM      30.29R
PORT ANGELES   MOSUNNY   50  41  71 W7        30.31R
EDIZ HOOK      FAIR      51  44  75 W8        30.31R
PORT TOWNSEND  FAIR      43  43 100 CALM      30.32R
NAS WHIDBEY    CLOUDY    52  49  89 W5        30.34S
ARLINGTON      SUNNY     45  37  76 N3        30.33S
BURLINGTON     SUNNY     48  45  87 CALM      30.32R
$$

WAZ020-022-039-040-504-511-512-301500-
SOUTHWEST INTERIOR

CITY           SKY/WX    TMP DP  RH WIND       PRES   REMARKS
SHELTON        PTSUNNY   46  43  89 CALM      30.28S
OLYMPIA        PTSUNNY   45  42  89 CALM      30.30S
CHEHALIS       CLOUDY    43  43 100 CALM      30.30S
KELSO          SUNNY     45  39  81 NE3       30.32R
VANCOUVER      SUNNY     51  44  77 CALM      30.27R
SCAPPOOSE, OR  SUNNY     52  44  74 N8        30.26S
PORTLAND, OR   MOSUNNY   51  45  79 N5        30.27S
$$

WAZ021-516-517-301500-
WASHINGTON COAST

CITY           SKY/WX    TMP DP  RH WIND       PRES   REMARKS
FORKS          MOSUNNY   44  42  93 CALM      30.31S
HOQUIAM        CLOUDY    45  45 100 NE5       30.31R FOG
ASTORIA, OR    MOSUNNY   45  44  97 E5        30.28R
$$

WAZ019-023-024-040-518-519-301500-
CASCADE MOUNTAINS AND COLUMBIA GORGE

CITY           SKY/WX    TMP DP  RH WIND       PRES   REMARKS
STAMPEDE PASS  SUNNY     37  34  89 SW5       30.26R
TROUTDALE, OR  SUNNY     50  44  80 CALM      30.27R
THE DALLES, OR SUNNY     53  44  71 NW5       30.25R
$$

WAZ026-027-041>044-520-521-301500-
EAST SLOPES

CITY           SKY/WX    TMP DP  RH WIND       PRES   REMARKS
OMAK           SUNNY     51  37  58 N5        30.24R
WENATCHEE      SUNNY     51  36  56 W8        30.24R
ELLENSBURG     SUNNY     47  35  63 E5        30.25R
YAKIMA         SUNNY     51  36  56 W6        30.26R
$$

WAZ028-034-035-301500-
COLUMBIA BASIN

CITY           SKY/WX    TMP DP  RH WIND       PRES   REMARKS
EPHRATA        SUNNY     55  34  45 NW5       30.22R
MOSES LAKE     SUNNY     53  33  46 NW7       30.23R
PASCO          SUNNY     51  44  77 CALM      30.25R
HERMISTON, OR  SUNNY     55  43  63 CALM      30.23R
$$

WAZ036>038-301500-
NORTHEAST WASHINGTON

CITY           SKY/WX    TMP DP  RH WIND       PRES   REMARKS
SPOKANE GEIGER MOSUNNY   49  37  63 W6        30.19R
SPOKANE FELTS  SUNNY     50  38  63 W5        30.20R
FAIRCHILD AFB  SUNNY     46  38  72 W5        30.19R
COEURDALENE,ID SUNNY     46  39  76 CALM      30.17R
DEER PARK      SUNNY     48  40  73 CALM      30.20R
$$

WAZ029>033-301500-
SOUTHEAST WASHINGTON

CITY           SKY/WX    TMP DP  RH WIND       PRES   REMARKS
PULLMAN        SUNNY     49  39  68 NW6       30.22R
LEWISTON, ID   SUNNY     58  37  45 S3        30.20R
WALLA WALLA    SUNNY     53  40  61 S7        30.23R
PENDLETON, OR  SUNNY     53  39  59 S3        30.23R
$$




USA.gov is the U.S. government's official web portal to all federal, state and local government web resources and services.